When you browse on this site, cookies collect data to enhance your experience and personalize the content and advertising you see.
Visit our Privacy Policy to learn more. By continuing to use the site, you agree to this use of cookies and data.
  • en France
  • Liste des pays
  • À 7 jours
  • Température de l'eau
  • Carte météo
  • Widgets météo
  • user-avatar
    Se connecter

    Météo par heure à Mogadiscio

    Ce jour, 27 Mai, Mercredi

    Heure Température Précipitation Vent Pression Humidité
    00:00 +29°C° 0 mm 6 m/s 756 mmHg 85%
    01:00 +29°C° 0 mm 6 m/s 756 mmHg 86%
    02:00 +28°C° 0 mm 6 m/s 755 mmHg 87%
    03:00 +28°C° 0 mm 6 m/s 755 mmHg 87%
    04:00 +28°C° 0.1 mm 6 m/s 755 mmHg 88%
    05:00 +28°C° 0.1 mm 6 m/s 756 mmHg 89%
    06:00 +27°C° 0.1 mm 6 m/s 756 mmHg 90%
    07:00 +28°C° 0.1 mm 6 m/s 756 mmHg 84%
    08:00 +30°C° 0.1 mm 6 m/s 757 mmHg 79%
    09:00 +32°C° 0 mm 6 m/s 757 mmHg 74%
    10:00 +32°C° 0 mm 7 m/s 757 mmHg 72%
    11:00 +33°C° 0 mm 7 m/s 756 mmHg 70%
    12:00 +33°C° 0 mm 8 m/s 756 mmHg 68%
    13:00 +33°C° 0.1 mm 8 m/s 756 mmHg 68%
    14:00 +33°C° 0.1 mm 8 m/s 755 mmHg 69%
    15:00 +33°C° 0.1 mm 8 m/s 754 mmHg 69%
    16:00 +32°C° 0 mm 7 m/s 755 mmHg 73%
    17:00 +32°C° 0 mm 7 m/s 755 mmHg 77%
    18:00 +30°C° 0 mm 6 m/s 755 mmHg 81%
    19:00 +30°C° 0.2 mm 6 m/s 756 mmHg 82%
    20:00 +29°C° 0.2 mm 6 m/s 756 mmHg 83%
    21:00 +29°C° 0.2 mm 6 m/s 756 mmHg 84%
    22:00 +29°C° 0.2 mm 6 m/s 756 mmHg 84%
    23:00 +29°C° 0.2 mm 6 m/s 756 mmHg 83%

    Demain, 28 Mai, Jeudi

    Heure Température Précipitation Vent Pression Humidité
    00:00 +29°C° 0.2 mm 6 m/s 756 mmHg 83%
    01:00 +29°C° 0 mm 5 m/s 756 mmHg 84%
    02:00 +29°C° 0 mm 4 m/s 756 mmHg 84%
    03:00 +28°C° 0 mm 3 m/s 755 mmHg 85%
    04:00 +28°C° 0 mm 3 m/s 756 mmHg 86%
    05:00 +28°C° 0 mm 3 m/s 756 mmHg 87%
    06:00 +28°C° 0 mm 3 m/s 756 mmHg 87%
    07:00 +29°C° 0 mm 4 m/s 757 mmHg 82%
    08:00 +30°C° 0 mm 5 m/s 757 mmHg 77%
    09:00 +32°C° 0 mm 5 m/s 758 mmHg 72%
    10:00 +33°C° 0 mm 5 m/s 757 mmHg 69%
    11:00 +33°C° 0 mm 5 m/s 757 mmHg 67%
    12:00 +33°C° 0 mm 5 m/s 756 mmHg 65%
    13:00 +33°C° 0 mm 5 m/s 756 mmHg 65%
    14:00 +33°C° 0 mm 5 m/s 755 mmHg 65%
    15:00 +33°C° 0 mm 5 m/s 755 mmHg 65%
    16:00 +32°C° 0.1 mm 5 m/s 755 mmHg 69%
    17:00 +30°C° 0.1 mm 5 m/s 755 mmHg 74%
    18:00 +30°C° 0.1 mm 5 m/s 755 mmHg 78%
    19:00 +29°C° 0 mm 5 m/s 755 mmHg 79%
    20:00 +29°C° 0 mm 5 m/s 756 mmHg 80%
    21:00 +29°C° 0 mm 5 m/s 756 mmHg 82%
    22:00 +29°C° 0.2 mm 5 m/s 756 mmHg 83%
    23:00 +29°C° 0.2 mm 5 m/s 756 mmHg 84%

    Après-demain, 29 Mai, Vendredi

    Heure Température Précipitation Vent Pression Humidité
    00:00 +28°C° 0.2 mm 6 m/s 755 mmHg 86%
    01:00 +28°C° 0.5 mm 6 m/s 755 mmHg 85%
    02:00 +28°C° 0.5 mm 6 m/s 755 mmHg 85%
    03:00 +28°C° 0.5 mm 7 m/s 755 mmHg 85%
    04:00 +28°C° 0.1 mm 7 m/s 755 mmHg 83%
    05:00 +28°C° 0.1 mm 7 m/s 756 mmHg 81%
    06:00 +28°C° 0.1 mm 7 m/s 756 mmHg 80%
    07:00 +29°C° 0 mm 7 m/s 756 mmHg 76%
    08:00 +30°C° 0 mm 7 m/s 757 mmHg 72%
    09:00 +31°C° 0 mm 8 m/s 757 mmHg 68%
    10:00 +32°C° 0 mm 8 m/s 757 mmHg 66%
    11:00 +32°C° 0 mm 8 m/s 756 mmHg 64%
    12:00 +32°C° 0 mm 8 m/s 756 mmHg 63%
    13:00 +32°C° 0 mm 7 m/s 756 mmHg 62%
    14:00 +32°C° 0 mm 7 m/s 755 mmHg 62%
    15:00 +32°C° 0 mm 7 m/s 755 mmHg 62%
    16:00 +30°C° 0 mm 7 m/s 755 mmHg 66%
    17:00 +30°C° 0 mm 6 m/s 755 mmHg 70%
    18:00 +29°C° 0 mm 6 m/s 755 mmHg 74%
    19:00 +29°C° 0 mm 6 m/s 755 mmHg 76%
    20:00 +29°C° 0 mm 6 m/s 756 mmHg 77%
    21:00 +28°C° 0 mm 6 m/s 756 mmHg 79%
    22:00 +28°C° 0 mm 6 m/s 756 mmHg 80%
    23:00 +28°C° 0 mm 6 m/s 755 mmHg 81%

    30 Mai, Samedi

    Heure Température Précipitation Vent Pression Humidité
    00:00 +28°C° 0 mm 6 m/s 755 mmHg 82%
    01:00 +28°C° 0 mm 6 m/s 755 mmHg 83%
    02:00 +28°C° 0 mm 6 m/s 755 mmHg 84%
    03:00 +28°C° 0 mm 6 m/s 755 mmHg 84%
    04:00 +27°C° 0.1 mm 6 m/s 755 mmHg 85%
    05:00 +27°C° 0.1 mm 6 m/s 755 mmHg 86%
    06:00 +27°C° 0.1 mm 6 m/s 755 mmHg 87%
    07:00 +28°C° 0 mm 6 m/s 756 mmHg 81%
    08:00 +29°C° 0 mm 6 m/s 756 mmHg 76%
    09:00 +30°C° 0 mm 7 m/s 757 mmHg 71%
    10:00 +32°C° 0 mm 7 m/s 756 mmHg 68%
    11:00 +32°C° 0 mm 7 m/s 756 mmHg 65%
    12:00 +33°C° 0 mm 7 m/s 756 mmHg 62%
    13:00 +33°C° 0 mm 7 m/s 755 mmHg 63%
    14:00 +32°C° 0 mm 7 m/s 755 mmHg 64%
    15:00 +32°C° 0 mm 8 m/s 755 mmHg 65%
    16:00 +30°C° 0 mm 7 m/s 755 mmHg 69%
    17:00 +30°C° 0 mm 7 m/s 755 mmHg 74%
    18:00 +29°C° 0 mm 7 m/s 755 mmHg 78%
    19:00 +29°C° 0 mm 7 m/s 755 mmHg 78%
    20:00 +28°C° 0 mm 6 m/s 756 mmHg 78%
    21:00 +28°C° 0 mm 6 m/s 757 mmHg 79%
    22:00 +28°C° 0 mm 6 m/s 757 mmHg 81%
    23:00 +28°C° 0 mm 6 m/s 756 mmHg 83%

    31 Mai, Dimanche

    Heure Température Précipitation Vent Pression Humidité
    00:00 +28°C° 0 mm 6 m/s 756 mmHg 85%
    01:00 +27°C° 0 mm 6 m/s 756 mmHg 85%
    02:00 +27°C° 0 mm 6 m/s 756 mmHg 85%
    03:00 +27°C° 0 mm 6 m/s 755 mmHg 85%
    04:00 +27°C° 0 mm 6 m/s 756 mmHg 86%
    05:00 +27°C° 0 mm 6 m/s 756 mmHg 86%
    06:00 +27°C° 0 mm 6 m/s 756 mmHg 86%
    07:00 +28°C° 0 mm 7 m/s 757 mmHg 81%
    08:00 +29°C° 0 mm 7 m/s 757 mmHg 76%
    09:00 +30°C° 0 mm 7 m/s 757 mmHg 71%
    10:00 +32°C° 0.1 mm 7 m/s 757 mmHg 69%
    11:00 +33°C° 0.1 mm 8 m/s 757 mmHg 66%
    12:00 +33°C° 0.1 mm 8 m/s 756 mmHg 63%
    13:00 +33°C° 0 mm 8 m/s 756 mmHg 65%
    14:00 +33°C° 0 mm 8 m/s 755 mmHg 66%
    15:00 +33°C° 0 mm 8 m/s 755 mmHg 67%
    16:00 +32°C° 0 mm 8 m/s 755 mmHg 70%
    17:00 +30°C° 0 mm 7 m/s 755 mmHg 74%
    18:00 +29°C° 0 mm 7 m/s 756 mmHg 78%
    19:00 +29°C° 0 mm 7 m/s 756 mmHg 79%
    20:00 +29°C° 0 mm 7 m/s 756 mmHg 80%
    21:00 +29°C° 0 mm 7 m/s 757 mmHg 82%
    22:00 +29°C° 0 mm 6 m/s 757 mmHg 82%
    23:00 +28°C° 0 mm 6 m/s 757 mmHg 83%

    1 Juin, Lundi

    Heure Température Précipitation Vent Pression Humidité
    00:00 +28°C° 0 mm 6 m/s 756 mmHg 83%
    01:00 +28°C° 0.2 mm 6 m/s 756 mmHg 84%
    02:00 +28°C° 0.2 mm 6 m/s 756 mmHg 85%
    03:00 +28°C° 0.2 mm 6 m/s 756 mmHg 86%
    04:00 +27°C° 0.4 mm 6 m/s 756 mmHg 87%
    05:00 +27°C° 0.4 mm 6 m/s 756 mmHg 88%
    06:00 +27°C° 0.4 mm 5 m/s 757 mmHg 89%
    07:00 +28°C° 0.2 mm 6 m/s 757 mmHg 83%
    08:00 +29°C° 0.2 mm 6 m/s 757 mmHg 78%
    09:00 +30°C° 0.2 mm 7 m/s 758 mmHg 72%
    10:00 +32°C° 0.1 mm 7 m/s 757 mmHg 69%
    11:00 +32°C° 0.1 mm 8 m/s 757 mmHg 66%
    12:00 +33°C° 0.1 mm 8 m/s 756 mmHg 64%
    13:00 +33°C° 0 mm 8 m/s 756 mmHg 65%
    14:00 +33°C° 0 mm 8 m/s 755 mmHg 66%
    15:00 +33°C° 0 mm 8 m/s 755 mmHg 67%
    16:00 +32°C° 0 mm 8 m/s 755 mmHg 71%
    17:00 +30°C° 0 mm 7 m/s 755 mmHg 75%
    18:00 +29°C° 0 mm 7 m/s 755 mmHg 79%
    19:00 +29°C° 0 mm 7 m/s 756 mmHg 80%
    20:00 +29°C° 0 mm 7 m/s 756 mmHg 81%
    21:00 +29°C° 0 mm 6 m/s 756 mmHg 83%
    22:00 +29°C° 0.4 mm 6 m/s 756 mmHg 83%
    23:00 +28°C° 0.4 mm 6 m/s 756 mmHg 83%
    Voir plus